Location: ??????
(41.3293°N, 20.6007°E)
Time: 14:12:52
(UTC+00:00)

Daily predictions for brighter satellites

Satellite Brightness Start Highest point End
(mag) Time Altitude Azimuth Time Altitude Azimuth Time Altitude Azimuth
Cosmos 1812 Rocket 4.4 18:42:24 10° N 18:46:23 34° ENE 18:50:18 10° SE
Delta 2 Rocket 3.8 18:44:48 10° SW 18:47:50 28° S 18:50:46 10° ESE
Atlas Centaur 2 3.3 18:44:46 10° SW 18:49:27 28° S 18:55:06 10° ESE
CZ-2C R/B 3.8 18:44:57 10° NNE 18:49:45 79° ESE 18:54:31 10° S
Cosmos 1602 Rocket 3.8 18:46:11 10° S 18:50:27 52° E 18:54:46 10° NNE
Cosmos 1356 Rocket 4.0 18:46:19 10° NNW 18:50:33 61° W 18:54:40 10° S
Cosmos 2263 Rocket 2.6 18:45:37 10° NNW 18:51:08 65° WSW 18:56:37 10° S
Cosmos 2219 Rocket 3.7 18:50:23 10° SE 18:53:37 16° E 18:56:51 10° ENE
Cosmos 2360 Rocket 2.4 18:49:37 10° S 18:55:01 49° ESE 19:00:28 10° NE
Meteor 2-16 Rocket 4.4 18:50:19 10° S 18:56:21 74° E 19:02:26 10° NNE
Meteor 2-1 Rocket 4.5 18:51:39 10° N 18:57:26 61° ENE 19:03:15 10° SSE
Cosmos 2333 Rocket 3.4 18:58:48 10° SSE 19:02:58 21° E 19:07:09 10° NE
Cosmos 1818 3.5 19:05:50 10° SSW 19:11:13 71° ESE 19:16:39 10° NE
Resurs 01 Rocket 1.6 19:08:44 10° SSE 19:13:09 86° ENE 19:17:34 10° NNW
SL-16 R/B 3.2 19:08:17 10° SW 19:13:47 51° WNW 19:19:19 10° NNE
CZ-2C R/B 3.6 19:09:24 10° N 19:14:39 52° WNW 19:19:45 10° SSW
Cosmos-2242 3.9 19:15:15 10° N 19:19:13 34° ENE 19:22:14 15° SE
ERS-1 Rocket 4.2 19:16:52 12° ESE 19:20:29 27° ENE 19:24:40 10° N
USA 215 3.5 19:16:38 10° ENE 19:22:54 47° SE 19:29:07 10° SSW
GEOS 3 Rocket 3.7 19:19:55 10° NE 19:25:18 65° ESE 19:30:37 10° SSW
Cosmos 2278 Rocket 4.3 19:23:49 10° NNE 19:26:37 14° NE 19:29:24 10° ENE
ATLAS 5 CENTAUR R/B 1.4 19:23:01 10° SSW 19:27:05 87° ESE 19:31:35 10° NE
ATLAS CENTAUR R/B 3.6 19:26:25 10° W 19:28:04 15° SW 19:30:21 10° S
Cosmos 1844 Rocket 2.9 19:27:00 10° NNW 19:32:31 59° ENE 19:36:36 18° SE
USA 245 3.2 19:30:59 21° SE 19:32:57 54° ENE 19:36:48 10° N
Cosmos 1758 Rocket 3.5 19:31:25 10° S 19:35:54 80° E 19:40:24 10° N
H-2A ROCKET BODY 4.1 19:31:54 10° SW 19:36:44 30° S 19:49:41 13° ESE
Meteor 2-10 Rocket 3.7 19:32:18 10° NNW 19:37:25 76° W 19:42:30 11° S
SPOT 5 3.9 19:34:42 17° ESE 19:37:51 32° ENE 19:42:09 10° N
Cosmos 1400 Rocket 3.0 19:35:54 10° N 19:39:48 54° ENE 19:42:04 23° SSE
Spot 2 Rocket 3.5 19:36:33 16° SSE 19:40:37 76° ENE 19:45:44 10° N
BREEZE-M DEB (TANK) 3.1 19:36:00 10° SW 19:42:52 46° SSE 19:45:20 10° ENE
OAO 3 Rocket 4.0 19:39:18 10° WSW 19:43:46 35° S 19:46:11 22° SE
Cosmos 1745 Rocket 4.3 19:39:33 10° SSW 19:45:41 68° W 19:51:56 10° N
Landsat 7 3.8 19:42:55 18° SSE 19:46:26 80° ENE 19:51:13 10° N
SPOT 1/Viking Rocket 3.5 19:51:14 21° SSE 19:54:46 79° ENE 19:59:57 10° N
Cosmos 1953 Rocket 3.4 19:56:04 20° S 19:59:02 75° E 20:03:21 10° NNE
Cosmos 2322 Rocket 4.4 19:56:39 10° WSW 20:01:21 27° NW 20:06:05 10° N
VEP-3 4.2 19:57:47 10° SW 20:02:16 22° S 20:03:43 21° SSE
Alouette 2 Rocket 3.7 19:58:55 10° NNW 20:02:53 90° SW 20:06:10 23° S
Cosmos 1328 4.4 20:01:45 11° SSW 20:05:27 56° W 20:09:23 10° N
OAO 2 Rocket 3.8 20:02:21 10° WSW 20:07:20 42° S 20:09:32 28° SE
Cosmos 2344 4.5 20:06:06 22° SE 20:07:56 24° ESE 20:13:44 10° ENE
SAR-Lupe-2 3.8 20:07:41 10° N 20:11:15 67° WNW 20:13:38 20° SSW
Cosmos 1455 3.9 20:10:31 10° NNW 20:13:51 29° W 20:16:46 13° SSW
COSMOS 2428 2.6 20:15:32 12° SSW 20:20:45 79° ESE 20:26:27 10° NNE
ATLAS CENTAUR R/B 2.0 20:17:54 10° NNW 20:21:20 36° NE 20:22:16 31° E
Cosmos 2322 4.3 20:19:08 10° SW 20:24:46 58° WNW 20:30:25 10° NNE
NOSS 0 Rocket 4.2 20:23:36 30° SSE 20:26:11 46° ESE 20:32:01 10° NE
Cosmos 1844 4.0 20:20:54 10° NNW 20:26:37 63° WSW 20:29:32 29° S
Meteor 1-27 4.2 20:27:18 10° N 20:33:05 86° E 20:35:46 34° SSE
Cosmos 1869 3.8 20:29:31 10° N 20:33:20 42° ENE 20:33:50 40° E
Terra 1.7 20:31:41 40° SSE 20:33:23 80° ENE 20:38:10 10° N
NOSS 3-3 (A) 4.0 20:27:49 10° SW 20:33:36 79° NW 20:40:05 10° NNE
NOSS 3-3 (C) 4.0 20:27:55 10° SW 20:33:42 80° NW 20:40:14 10° NNE
Cosmos 2237 Rocket 2.7 20:33:11 35° SE 20:34:25 39° ESE 20:39:40 10° NE
CARTOSAT-1 3.9 20:32:57 34° SSW 20:34:38 59° W 20:38:54 10° NNW
Cosmos 2219 Rocket 2.4 20:31:20 10° SSW 20:36:53 69° WNW 20:42:29 10° NNE
Atlas Centaur 2 3.4 20:32:30 10° WSW 20:38:01 31° S 20:38:47 30° S
Cosmos 2360 Rocket 4.4 20:34:38 10° WSW 20:39:17 26° NW 20:43:58 10° N
Cosmos 1538 Rocket 4.3 20:35:01 14° SSW 20:39:34 69° WNW 20:44:55 10° NNE
Cosmos 2184 Rocket 3.9 20:42:26 34° S 20:45:20 74° E 20:51:37 10° N
DELTA 2 R/B (1) 3.6 20:40:25 10° WSW 20:45:50 52° SSE 20:49:12 22° E
BREEZE-M (TANK) 4.0 20:42:01 13° SW 20:45:51 67° SE 21:02:56 10° ENE
Cosmos 2333 Rocket 2.9 20:41:12 10° SW 20:46:45 54° WNW 20:52:23 10° NNE
Meteor 2-2 Rocket 4.3 20:45:21 10° N 20:51:10 71° E 20:53:04 43° SSE
Thor Agena Rocket 4.1 20:47:36 10° NNE 20:52:19 37° E 20:52:43 37° ESE
Cosmos 1315 Rocket 3.3 20:49:21 10° NNW 20:53:22 57° W 20:54:13 46° SW
ATLAS 2AS CENTAUR R/B 3.7 20:47:29 10° NNW 20:54:34 41° NE 20:59:01 20° ESE
ERS-1 Rocket 4.1 20:56:52 25° SW 20:59:06 36° W 21:03:45 10° NNW
Cosmos 2221 2.4 20:57:29 10° N 21:01:53 84° W 21:02:29 65° S
USA 215 4.0 20:59:35 10° NE 21:05:57 55° NNW 21:12:17 10° WSW
Cosmos 1892 2.6 21:07:02 81° NNE 21:07:02 81° NNE 21:10:40 10° N
Cosmos 2112 Rocket 4.1 21:08:06 53° SSE 21:08:58 61° ESE 21:14:16 10° NNE
EO 1 Del DPAF 4.2 21:07:15 10° NNE 21:10:00 36° ENE 21:10:00 36° ENE
Cosmos 2278 Rocket 2.1 21:05:58 10° NNW 21:11:40 78° ENE 21:13:09 51° SE
Cosmos 158 Rocket 3.7 21:13:10 64° SSE 21:13:45 72° ESE 21:18:38 10° NNE
SPOT 5 4.4 21:13:56 23° SW 21:15:52 29° W 21:20:07 10° NW
Gblst 52 Del rocket 4.4 21:12:03 10° NW 21:17:56 80° NE 21:20:33 38° ESE
SL-16 R/B 3.1 21:18:56 32° E 21:18:56 32° E 21:23:44 10° NE
Spot 4 4.0 21:20:00 53° ESE 21:20:36 57° ENE 21:25:17 10° N
Cosmos 2154 Rocket 3.9 21:23:03 44° SSW 21:25:11 85° W 21:31:26 10° N
Cosmos 2058 3.2 21:25:00 55° WSW 21:25:22 57° W 21:29:28 10° N
Cosmos 2056 Rocket 4.2 21:21:14 10° N 21:26:28 46° ENE 21:27:39 40° E
Nadezhda 3 Rocket 3.9 21:20:57 10° N 21:27:22 89° E 21:29:11 50° S
Cosmos 2341 Rocket 4.2 21:26:53 47° SE 21:28:13 57° E 21:34:17 10° NNE
Cosmos 1408 3.1 21:29:06 55° N 21:29:06 55° N 21:31:58 10° N
Cosmos 1076 Rocket 4.0 21:36:08 47° WSW 21:36:35 50° W 21:40:46 10° N
USA 267 3.2 21:34:05 41° SE 21:36:41 87° NE 21:43:16 10° NW
Cosmos 1680 Rocket 3.8 21:35:42 42° SW 21:37:22 64° WNW 21:42:41 10° NNE
TSX-5 4.2 21:34:28 10° NNW 21:37:36 57° WNW 21:37:36 57° WNW
Cosmos 2151 3.0 21:47:18 76° NNE 21:47:18 76° NNE 21:51:16 10° N
SL-8 Rocket 4.1 21:46:22 52° SE 21:47:26 59° E 21:53:29 10° NNE
EO 1 Delta rocket 4.4 21:46:00 10° N 21:51:11 74° W 21:52:50 49° SSW
COSMOS 2455 4.5 21:46:35 10° N 21:51:41 27° NE 21:55:18 16° E
Cosmos 1825 3.0 21:58:09 47° NW 21:58:09 47° NW 22:01:15 10° N
ALOS 2 2.7 21:58:03 67° NE 21:58:03 67° NE 22:02:13 10° N
Cosmos 1408 Rocket 4.5 21:58:51 38° ENE 21:58:51 38° ENE 22:02:19 10° NNE
Cosmos 1340 4.2 21:59:38 30° NE 21:59:38 30° NE 22:01:56 10° NNE
ATLAS CENTAUR R/B 3.6 21:57:38 10° WNW 21:58:26 13° W 21:58:26 13° W
IRIDIUM 103 4.3 22:01:14 63° ESE 22:01:31 64° E 22:06:41 10° N
Cosmos 1933 4.2 21:59:10 10° N 22:02:24 43° NE 22:02:24 43° NE
Cosmos 1151 Rocket 3.5 21:59:23 10° N 22:03:13 52° NE 22:03:13 52° NE
Cosmos 2369 Rocket 4.1 21:59:41 10° N 22:03:55 21° NE 22:07:05 14° E
Cosmos 44 3.2 22:05:15 67° NNE 22:05:15 67° NNE 22:09:05 10° NNE
Cosmos 371 Rocket 3.7 22:06:45 10° N 22:11:29 50° ENE 22:11:47 50° E
Terra 4.3 22:10:58 10° W 22:11:42 10° W 22:12:25 10° W
GP-B 3.2 22:07:18 10° N 22:11:23 75° N 22:11:23 75° N
Cosmos 1339 Rocket 4.4 22:10:17 10° N 22:16:39 86° E 22:17:54 61° SSE
Cosmos 1624 Rocket 4.0 22:11:43 10° NNW 22:16:53 63° WSW 22:16:57 62° WSW
NOSS 3-4 (A) 3.9 22:10:49 10° NW 22:17:55 69° WSW 22:19:46 52° S
NOSS 3-4 (C) 3.9 22:10:55 10° NW 22:18:02 70° WSW 22:19:54 52° S
Cosmos 2237 Rocket 3.7 22:14:58 17° WSW 22:18:31 32° WNW 22:23:36 10° N
IRIDIUM 106 4.1 22:19:31 80° SSW 22:19:48 86° W 22:25:03 10° N
Helios 1B rocket 4.5 22:17:00 10° NE 22:19:04 19° ENE 22:19:04 19° ENE
Cosmos 2344 3.9 22:16:02 19° SW 22:21:32 60° NW 22:29:27 10° NNE
Cosmos 1782 4.2 22:20:35 10° N 22:23:34 32° NE 22:23:34 32° NE
Cosmos 1346 Rocket 3.8 22:28:04 40° NE 22:28:04 40° NE 22:30:50 10° NNE
DELTA 2 R/B (1) 4.3 22:26:29 10° W 22:36:22 18° E 22:37:41 10° E
BREEZE-M DEB (TANK) 4.5 22:41:07 10° NW 22:41:22 12° NW 22:41:22 12° NW
Cosmos 1515 Rocket 3.8 22:39:27 10° N 22:43:15 67° N 22:43:15 67° N
CZ-4 R/B 4.3 22:40:21 10° NNE 22:44:35 50° E 22:44:35 50° E
ATLAS 2AS CENTAUR R/B 3.0 22:38:39 10° NW 22:45:39 48° WSW 22:46:25 46° SW
Gbstr 26 Del rocket 3.6 22:49:28 48° NNE 22:49:28 48° NNE 22:52:48 10° NE
Cosmos 468 4.4 22:49:36 80° SE 22:49:43 81° ESE 22:55:00 10° NNE
Cosmos 44 Rocket 4.5 22:51:43 30° E 22:51:43 30° E 22:54:54 10° NE
Cosmos 1328 Rocket 4.5 22:47:01 10° NNW 22:50:25 40° WNW 22:50:25 40° WNW
Cosmos 2218 Rocket 4.5 22:50:54 43° WSW 22:52:25 52° WNW 22:58:35 10° N
Cosmos 2278 Rocket 4.2 22:52:11 10° WNW 22:54:58 14° W 22:54:59 14° W
Cosmos 1943 3.7 22:56:06 45° ESE 22:56:17 46° ESE 23:01:40 10° NE
Cosmos 2297 4.0 22:51:35 10° NNW 22:57:08 52° WSW 22:57:11 52° WSW
Cosmos 304 Rocket 3.9 22:53:08 10° NNW 22:57:57 67° ENE 22:58:04 67° ENE
Cosmos 2228 Rocket 3.3 22:54:57 10° N 22:59:19 67° ENE 22:59:19 67° ENE
Cosmos 1633 3.9 23:01:11 37° NNW 23:01:11 37° NNW 23:03:37 10° N
Cosmos 494 Rocket 4.2 23:00:18 57° ESE 23:00:18 57° ESE 23:05:21 10° NNE
Cosmos 1420 Rocket 4.4 22:55:43 10° NNW 23:00:36 49° W 23:00:36 49° W
SL-16 R/B 3.3 23:00:47 29° W 23:02:45 37° WNW 23:08:01 10° N
Lacrosse 5 rocket 3.6 23:00:27 10° NNW 23:03:34 22° NNE 23:06:18 11° E
Cosmos 1943 Rocket 2.1 22:58:14 10° NNW 23:03:56 85° ENE 23:04:40 68° SE
CRYOSAT 2 4.3 23:00:34 10° N 23:05:26 71° E 23:05:26 71° E
Cosmos 1821 Rocket 3.8 23:05:53 63° SSE 23:06:55 81° E 23:13:02 10° N
Cosmos 1743 Rocket 4.0 23:12:36 53° NW 23:12:36 53° NW 23:16:26 10° N
BREEZE-M DEB (TANK) 3.9 23:00:19 10° WSW 23:12:53 78° SSE 23:16:53 10° ENE
Sich 1 3.7 23:15:28 45° ENE 23:15:28 45° ENE 23:19:15 10° NNE
Cosmos 1048 Rocket 4.2 23:19:32 54° W 23:20:11 59° WNW 23:25:25 10° NNE
Cosmos 332 Rocket 4.4 23:17:33 10° NNW 23:21:28 43° W 23:21:28 43° W
Cosmos 1331 Rocket 4.3 23:17:15 10° NNW 23:22:32 62° ENE 23:23:39 50° ESE
Meteor 1-29 4.3 23:26:57 10° NNE 23:29:10 39° NNE 23:29:10 39° NNE
SL-4 R/B 4.2 23:32:31 12° ENE 23:32:31 12° ENE 23:32:52 10° ENE
Meteor 1-10 Rocket 4.0 23:29:23 10° N 23:34:59 88° W 23:35:50 66° S
SL-16 R/B 3.6 23:31:34 19° SE 23:35:29 40° ENE 23:41:15 10° N
Cosmos 1452 Rocket 4.4 23:30:44 10° NW 23:35:06 35° W 23:35:06 35° W
Cosmos 1605 Rocket 4.5 23:34:30 39° SE 23:36:27 53° E 23:42:34 10° NNE
PSLV R/B 4.3 23:32:41 10° N 23:36:34 43° WNW 23:36:34 43° WNW
Meteor 2-6 Rocket 4.0 23:31:57 10° NNW 23:37:23 69° W 23:37:54 65° SW
Cosmos 1603 3.8 23:36:25 55° WSW 23:37:29 68° WNW 23:43:12 10° NNE
Cosmos 389 Rocket 3.9 23:34:16 10° N 23:37:05 33° ENE 23:37:05 33° ENE
CZ-4C R/B 3.2 23:30:12 10° NNW 23:37:32 70° NE 23:45:19 12° SE
COSMOS 2455 2.9 23:32:04 10° NW 23:37:57 56° WSW 23:38:24 55° SW
Cosmos 1110 Rocket 3.9 23:34:21 10° NNW 23:39:40 84° WSW 23:40:16 70° S
Cosmos 1269 Rocket 3.9 23:39:59 70° S 23:40:33 81° ESE 23:45:52 10° NNE
Cosmos 1666 Rocket 3.6 23:44:14 67° E 23:44:16 68° E 23:48:38 10° NNE
Cosmos 1607 4.1 23:45:31 50° SSE 23:46:45 59° ESE 23:52:54 10° NE
Resurs 1-4 Rocket 2.9 23:42:29 10° NNE 23:47:31 42° E 23:48:45 36° SE
Cosmos 2369 Rocket 2.1 23:42:51 10° NNW 23:48:22 61° WSW 23:48:49 58° SW
ISS -2.3 23:51:01 37° NE 23:51:01 37° NE 23:53:14 10° NE
SeaSat 1 2.4 23:45:53 10° NNE 23:50:48 68° ESE 23:51:20 63° SSE
Helios 1B rocket 3.6 23:51:44 10° N 23:55:23 31° WNW 23:55:23 31° WNW
